Location: Newark
(27.9675°N, 86.8869°E)
Time: 23:17:43
(UTC+00:00)

Altair - Pass Details

Date: 24 October 2019
Orbit: 1502 x 1682 km, 47.2° (Epoch: 20 November)

Event Time Altitude Azimuth Distance (km) Brightness Sun altitude
Rises 06:54:40 0° 295° (WNW) 4,744 10.1 47.9°
Reaches altitude 10° 06:58:38 10° 309° (NW) 3,791 9.6 47.6°
Maximum altitude 07:06:03 24° 359° (N) 2,899 8.8 46.9°
Drops below altitude 10° 07:13:39 10° 50° (NE) 3,897 9.3 46.2°
Sets 07:17:48 0° 64° (ENE) 4,906 9.8 45.8°
